BAW3585 EGSS-EDDF

Flight info

Callsign BAW3585
Flight time 1h 17m
Altitude 33000
Route DET2D DET L6 DVR UL9 KONAN UL607 SPI T180 NIVNU T847 IMCOM IMCOM1B
Aircraft B748/H-SDE3FGHIJM1M2RWXYZ/LB1

Departure

Time 2026-05-04 08:20
Airport London Stansted Airport (EGSS)

Arrival

Time 2026-05-04 09:37
Airport Frankfurt Main Airport (EDDF)
Time Latitude Longitude Altitude Speed Heading
2026-05-04 07:55 51.88556 0.24551 340 ft 0 kts 42°
2026-05-04 08:11 51.88544 0.24533 350 ft 4 kts 46°
2026-05-04 08:11 51.88512 0.24490 359 ft 4 kts 354°
2026-05-04 08:11 51.88494 0.24496 360 ft 4 kts 316°
2026-05-04 08:12 51.88476 0.24527 360 ft 4 kts 311°
2026-05-04 08:12 51.88471 0.24537 358 ft 0 kts 313°
2026-05-04 08:14 51.88471 0.24536 358 ft 1 kts 313°
2026-05-04 08:16 51.88426 0.24156 356 ft 14 kts 224°
2026-05-04 08:16 51.88356 0.24042 358 ft 14 kts 224°
2026-05-04 08:16 51.88281 0.23929 356 ft 15 kts 223°
2026-05-04 08:17 51.88203 0.23814 351 ft 15 kts 222°
2026-05-04 08:17 51.88124 0.23697 354 ft 15 kts 223°
2026-05-04 08:17 51.88045 0.23578 355 ft 16 kts 223°
2026-05-04 08:17 51.87963 0.23453 352 ft 17 kts 224°
2026-05-04 08:19 51.87973 0.22693 350 ft 13 kts 16°
2026-05-04 08:19 51.88100 0.22873 335 ft 62 kts 42°
2026-05-04 08:20 51.88661 0.23709 354 ft 153 kts 42°
2026-05-04 08:20 51.89541 0.25090 753 ft 188 kts 42°
2026-05-04 08:20 51.90552 0.26628 1206 ft 211 kts 45°
2026-05-04 08:20 51.91203 0.28771 1954 ft 218 kts 82°
2026-05-04 08:21 51.90930 0.31122 3037 ft 211 kts 121°
2026-05-04 08:21 51.89888 0.32689 4248 ft 209 kts 157°
2026-05-04 08:21 51.88426 0.33093 4959 ft 221 kts 188°
2026-05-04 08:21 51.86979 0.32284 5014 ft 224 kts 208°
2026-05-04 08:22 51.85497 0.30964 5050 ft 258 kts 210°
2026-05-04 08:22 51.83901 0.29592 5049 ft 265 kts 206°
2026-05-04 08:24 51.71544 0.27997 12145 ft 310 kts 153°
2026-05-04 08:24 51.69545 0.29656 12498 ft 337 kts 155°
2026-05-04 08:24 51.67377 0.31323 13041 ft 355 kts 156°
2026-05-04 08:24 51.65147 0.33040 14124 ft 358 kts 156°
2026-05-04 08:25 51.62897 0.34808 14978 ft 363 kts 155°
2026-05-04 08:25 51.60612 0.36607 15838 ft 367 kts 155°
2026-05-04 08:25 51.58297 0.38413 16683 ft 371 kts 156°
2026-05-04 08:25 51.55955 0.40232 17514 ft 376 kts 156°
2026-05-04 08:26 51.53591 0.42072 18341 ft 380 kts 156°
2026-05-04 08:27 51.34663 0.56826 21910 ft 447 kts 148°
2026-05-04 08:28 51.32276 0.60024 22703 ft 450 kts 136°
2026-05-04 08:28 51.30309 0.63954 23096 ft 457 kts 124°
2026-05-04 08:28 51.28871 0.68459 23884 ft 458 kts 113°
2026-05-04 08:28 51.27910 0.73316 24547 ft 457 kts 109°
2026-05-04 08:29 51.27023 0.78165 25222 ft 455 kts 109°
2026-05-04 08:29 51.26146 0.83014 25899 ft 452 kts 110°
2026-05-04 08:29 51.25263 0.87815 26553 ft 450 kts 111°
2026-05-04 08:31 51.18876 1.22090 29487 ft 475 kts 112°
2026-05-04 08:33 51.15189 1.58389 32889 ft 479 kts 99°
2026-05-04 08:33 51.14923 1.63691 33321 ft 479 kts 99°
2026-05-04 08:35 51.13049 2.00553 35935 ft 476 kts 98°
2026-05-04 08:35 51.12768 2.05879 36302 ft 476 kts 98°
2026-05-04 08:35 51.12492 2.11051 36645 ft 475 kts 98°
2026-05-04 08:35 51.12207 2.16364 36994 ft 475 kts 98°
2026-05-04 08:37 51.10175 2.52996 36983 ft 474 kts 98°
2026-05-04 08:38 51.09567 2.63443 36986 ft 473 kts 101°
2026-05-04 08:38 51.07977 2.73500 36998 ft 469 kts 110°
2026-05-04 08:40 51.00709 3.13257 36996 ft 469 kts 110°
2026-05-04 08:41 50.98866 3.23198 36988 ft 469 kts 110°
2026-05-04 08:41 50.97018 3.33132 36980 ft 469 kts 110°
2026-05-04 08:42 50.95161 3.43048 36976 ft 469 kts 111°
2026-05-04 08:42 50.93295 3.52969 36982 ft 468 kts 111°
2026-05-04 08:43 50.91437 3.62791 36980 ft 468 kts 111°
2026-05-04 08:43 50.89544 3.72663 36976 ft 468 kts 111°
2026-05-04 08:44 50.87635 3.82527 36984 ft 469 kts 111°
2026-05-04 08:46 50.79936 4.21887 36983 ft 468 kts 112°
2026-05-04 08:46 50.77994 4.31690 36989 ft 467 kts 112°
2026-05-04 08:47 50.76371 4.39841 36987 ft 467 kts 112°
2026-05-04 08:47 50.74085 4.51270 36985 ft 467 kts 112°
2026-05-04 08:48 50.72457 4.59369 36982 ft 462 kts 112°
2026-05-04 08:48 50.70596 4.68933 36978 ft 452 kts 111°
2026-05-04 08:49 50.68767 4.78402 36986 ft 452 kts 112°
2026-05-04 08:50 50.62082 5.11578 36984 ft 454 kts 112°
2026-05-04 08:51 50.60140 5.20978 36987 ft 454 kts 113°
2026-05-04 08:51 50.58170 5.30442 36988 ft 456 kts 113°
2026-05-04 08:52 50.56191 5.39942 36988 ft 456 kts 113°
2026-05-04 08:52 50.54208 5.49388 36988 ft 456 kts 113°
2026-05-04 08:54 50.46793 5.87423 35135 ft 449 kts 111°
2026-05-04 08:55 50.45922 5.92041 34716 ft 446 kts 111°
2026-05-04 08:55 50.45024 5.96757 34296 ft 444 kts 111°
2026-05-04 08:55 50.44159 6.01321 33851 ft 441 kts 111°
2026-05-04 08:55 50.43288 6.05931 33408 ft 438 kts 112°
2026-05-04 08:57 50.37305 6.37140 30330 ft 417 kts 113°
2026-05-04 09:01 50.30622 6.96235 24074 ft 366 kts 120°
2026-05-04 09:01 50.29539 6.99836 23648 ft 364 kts 120°
2026-05-04 09:01 50.28478 7.03425 23159 ft 361 kts 119°
2026-05-04 09:01 50.27422 7.06984 22644 ft 359 kts 120°
2026-05-04 09:02 50.26371 7.10494 22179 ft 356 kts 120°
2026-05-04 09:02 50.25321 7.13988 21676 ft 353 kts 120°
2026-05-04 09:02 50.24282 7.17457 21197 ft 350 kts 120°
2026-05-04 09:02 50.23254 7.20884 20734 ft 348 kts 120°
2026-05-04 09:03 50.22242 7.24255 20285 ft 345 kts 120°
2026-05-04 09:03 50.21223 7.27638 19835 ft 342 kts 120°
2026-05-04 09:03 50.20215 7.30979 19389 ft 340 kts 120°
2026-05-04 09:03 50.19294 7.34375 18939 ft 339 kts 114°
2026-05-04 09:04 50.18493 7.37815 18487 ft 336 kts 115°
2026-05-04 09:04 50.17657 7.41217 17996 ft 334 kts 115°
2026-05-04 09:04 50.16840 7.44603 17501 ft 332 kts 114°
2026-05-04 09:04 50.16046 7.47957 17038 ft 329 kts 114°
2026-05-04 09:05 50.15252 7.51298 16562 ft 327 kts 114°
2026-05-04 09:05 50.14460 7.54593 16096 ft 324 kts 114°
2026-05-04 09:05 50.13670 7.57875 15617 ft 322 kts 114°
2026-05-04 09:05 50.12890 7.61122 15145 ft 319 kts 114°
2026-05-04 09:06 50.12112 7.64356 14698 ft 317 kts 114°
2026-05-04 09:07 50.04269 7.83862 11388 ft 297 kts 128°
2026-05-04 09:08 50.03090 7.86500 10918 ft 296 kts 128°
2026-05-04 09:08 50.01924 7.89111 10470 ft 293 kts 128°
2026-05-04 09:08 50.00777 7.91685 10308 ft 282 kts 128°
2026-05-04 09:08 49.99656 7.94192 9832 ft 282 kts 127°
2026-05-04 09:09 49.98660 7.96814 9417 ft 280 kts 121°
2026-05-04 09:09 49.97711 7.99455 8969 ft 278 kts 122°
2026-05-04 09:09 49.96775 8.02024 8583 ft 276 kts 122°
2026-05-04 09:09 49.95852 8.04589 8186 ft 275 kts 122°
2026-05-04 09:10 49.94922 8.07177 7794 ft 273 kts 122°
2026-05-04 09:10 49.94001 8.09738 7380 ft 272 kts 121°
2026-05-04 09:10 49.93078 8.12298 7004 ft 270 kts 121°
2026-05-04 09:10 49.92157 8.14843 6610 ft 269 kts 121°
2026-05-04 09:11 49.91247 8.17365 6261 ft 267 kts 121°
2026-05-04 09:11 49.90342 8.19868 5875 ft 266 kts 121°
2026-05-04 09:11 49.89434 8.22373 5463 ft 265 kts 121°
2026-05-04 09:11 49.88533 8.24862 5092 ft 264 kts 120°
2026-05-04 09:12 49.87979 8.27491 5034 ft 256 kts 94°
2026-05-04 09:12 49.88266 8.30232 5418 ft 256 kts 71°
2026-05-04 09:14 49.92839 8.49234 6024 ft 283 kts 70°
2026-05-04 09:14 49.93526 8.52093 6020 ft 283 kts 70°
2026-05-04 09:14 49.94215 8.54966 6019 ft 285 kts 70°
2026-05-04 09:14 49.94904 8.57843 6015 ft 283 kts 70°
2026-05-04 09:15 49.95588 8.60700 6022 ft 283 kts 70°
2026-05-04 09:15 49.96276 8.63583 6013 ft 284 kts 70°
2026-05-04 09:15 49.96960 8.66446 6014 ft 284 kts 70°
2026-05-04 09:15 49.97642 8.69310 6016 ft 283 kts 70°
2026-05-04 09:17 50.03080 8.92270 6014 ft 283 kts 70°
2026-05-04 09:18 50.04008 8.94942 6029 ft 284 kts 47°
2026-05-04 09:18 50.05602 8.96691 6042 ft 279 kts 19°
2026-05-04 09:18 50.07461 8.97096 6022 ft 263 kts 349°
2026-05-04 09:18 50.09084 8.96152 6018 ft 243 kts 323°
2026-05-04 09:19 50.10308 8.94419 6021 ft 235 kts 303°
2026-05-04 09:19 50.11212 8.92282 6020 ft 239 kts 300°
2026-05-04 09:19 50.12092 8.90045 6021 ft 245 kts 295°
2026-05-04 09:19 50.12465 8.87535 6029 ft 235 kts 264°
2026-05-04 09:20 50.12138 8.85156 6017 ft 217 kts 251°
2026-05-04 09:20 50.11636 8.82965 6013 ft 213 kts 249°
2026-05-04 09:20 50.11129 8.80838 6017 ft 210 kts 249°
2026-05-04 09:20 50.10620 8.78706 6014 ft 209 kts 249°
2026-05-04 09:21 50.10120 8.76610 6019 ft 209 kts 249°
2026-05-04 09:21 50.09616 8.74491 6020 ft 208 kts 249°
2026-05-04 09:21 50.09113 8.72366 6017 ft 210 kts 249°
2026-05-04 09:21 50.08609 8.70240 6023 ft 208 kts 249°
2026-05-04 09:22 50.08107 8.68123 6019 ft 209 kts 249°
2026-05-04 09:22 50.07598 8.65971 6013 ft 208 kts 249°
2026-05-04 09:22 50.07107 8.63875 6020 ft 209 kts 249°
2026-05-04 09:22 50.06603 8.61718 6017 ft 209 kts 249°
2026-05-04 09:23 50.06111 8.59622 6020 ft 209 kts 249°
2026-05-04 09:23 50.05606 8.57467 6016 ft 209 kts 249°
2026-05-04 09:23 50.05115 8.55373 6016 ft 209 kts 249°
2026-05-04 09:23 50.04616 8.53252 6017 ft 210 kts 250°
2026-05-04 09:25 50.10867 8.54328 6028 ft 229 kts 63°
2026-05-04 09:25 50.11592 8.56554 6022 ft 229 kts 63°
2026-05-04 09:26 50.12313 8.58768 6018 ft 229 kts 63°
2026-05-04 09:26 50.13037 8.60997 6022 ft 230 kts 63°
2026-05-04 09:26 50.13759 8.63212 6019 ft 230 kts 63°
2026-05-04 09:26 50.14481 8.65444 6022 ft 229 kts 63°
2026-05-04 09:27 50.15196 8.67661 5994 ft 229 kts 64°
2026-05-04 09:27 50.15934 8.69946 5402 ft 245 kts 63°
2026-05-04 09:27 50.16706 8.72344 5043 ft 244 kts 63°
2026-05-04 09:27 50.17464 8.74692 4482 ft 243 kts 63°
2026-05-04 09:28 50.18211 8.77015 4056 ft 238 kts 63°
2026-05-04 09:28 50.18883 8.79310 3991 ft 227 kts 76°
2026-05-04 09:28 50.18886 8.81742 4015 ft 224 kts 100°
2026-05-04 09:28 50.18605 8.84092 4010 ft 214 kts 103°
2026-05-04 09:29 50.18306 8.86319 3999 ft 211 kts 103°
2026-05-04 09:29 50.18009 8.88576 4001 ft 210 kts 103°
2026-05-04 09:29 50.17714 8.90799 4002 ft 208 kts 103°
2026-05-04 09:29 50.17418 8.92970 4009 ft 207 kts 106°
2026-05-04 09:30 50.16672 8.94808 3998 ft 200 kts 144°
2026-05-04 09:30 50.15397 8.95545 4006 ft 198 kts 180°
2026-05-04 09:30 50.14122 8.94938 4004 ft 194 kts 216°
2026-05-04 09:30 50.13126 8.93539 4017 ft 194 kts 232°
2026-05-04 09:31 50.12353 8.91819 4006 ft 194 kts 227°
2026-05-04 09:31 50.11589 8.90145 4019 ft 186 kts 243°
2026-05-04 09:31 50.11086 8.88316 4016 ft 182 kts 248°
2026-05-04 09:31 50.10630 8.86482 4008 ft 181 kts 249°
2026-05-04 09:32 50.10209 8.84716 3802 ft 165 kts 249°
2026-05-04 09:32 50.09821 8.83087 3558 ft 158 kts 249°
2026-05-04 09:34 50.07347 8.72694 2240 ft 153 kts 248°
2026-05-04 09:34 50.06857 8.70639 1990 ft 153 kts 249°
2026-05-04 09:34 50.06487 8.69087 1782 ft 154 kts 248°
2026-05-04 09:34 50.06113 8.67517 1579 ft 156 kts 248°
2026-05-04 09:35 50.05861 8.66455 1446 ft 155 kts 248°
2026-05-04 09:35 50.05485 8.64885 1232 ft 155 kts 248°
2026-05-04 09:35 50.05110 8.63354 1049 ft 153 kts 249°
2026-05-04 09:35 50.04728 8.61786 870 ft 153 kts 249°
2026-05-04 09:37 50.03022 8.54686 357 ft 12 kts 199°
2026-05-04 09:37 50.02986 8.54680 357 ft 9 kts 168°
2026-05-04 09:38 50.02969 8.54689 361 ft 7 kts 161°
2026-05-04 09:38 50.02911 8.54786 360 ft 17 kts 134°
2026-05-04 09:38 50.02789 8.54905 361 ft 17 kts 117°
2026-05-04 09:38 50.02812 8.55008 359 ft 6 kts 42°
2026-05-04 09:39 50.02828 8.55031 359 ft 1 kts 41°
2026-05-04 09:39 50.02847 8.55057 360 ft 7 kts 44°
2026-05-04 09:39 50.02890 8.55154 358 ft 13 kts 64°
2026-05-04 09:39 50.02929 8.55313 358 ft 20 kts 66°
2026-05-04 09:40 50.02992 8.55550 360 ft 20 kts 68°
2026-05-04 09:40 50.03051 8.55800 357 ft 29 kts 69°
2026-05-04 09:40 50.03134 8.56133 362 ft 37 kts 69°
2026-05-04 09:40 50.03214 8.56517 357 ft 32 kts 73°
2026-05-04 09:41 50.03270 8.56783 352 ft 10 kts 84°
2026-05-04 09:42 50.02800 8.56929 361 ft 0 kts 249°